Time,TemperatureF,DewpointF,PressureIn,WindDirection,WindDirectionDegrees,WindSpeedMPH,WindSpeedGustMPH,Humidity,HourlyPrecipIn,Conditions,Clouds,dailyrainin,SolarRadiationWatts/m^2,SoftwareType,DateUTC
2013-10-05 00:00:00,63.8,62.6,30.14,SSW,209,0.0,0.0,96,0.00,CLR,,0.00,0.0,WeatherDisplay:10.37,2013-10-05 04:00:00,
2013-10-05 00:10:00,63.7,62.5,30.14,SSW,209,0.0,0.0,96,0.00,CLR,,0.00,0.0,WeatherDisplay:10.37,2013-10-05 04:10:00,
2013-10-05 00:20:00,63.9,62.7,30.14,SSW,209,0.0,0.0,96,0.00,CLR,,0.00,0.0,WeatherDisplay:10.37,2013-10-05 04:20:00,
2013-10-05 00:30:00,64.0,62.9,30.14,SSW,209,0.0,0.0,96,0.00,CLR,,0.00,0.0,WeatherDisplay:10.37,2013-10-05 04:30:00,
2013-10-05 00:40:00,64.2,63.0,30.14,SSW,209,0.0,0.0,96,0.00,CLR,,0.00,0.0,WeatherDisplay:10.37,2013-10-05 04:40:00,
2013-10-05 00:50:00,64.1,62.6,30.14,SSW,209,0.0,0.0,95,0.00,CLR,,0.00,0.0,WeatherDisplay:10.37,2013-10-05 04:50:00,
2013-10-05 01:00:00,63.4,61.6,30.13,SSW,209,0.0,0.0,94,0.00,CLR,,0.00,0.0,WeatherDisplay:10.37,2013-10-05 05:00:00,
2013-10-05 01:10:00,63.2,61.7,30.13,SSW,209,0.0,0.0,95,0.00,CLR,,0.00,0.0,WeatherDisplay:10.37,2013-10-05 05:10:00,
2013-10-05 01:20:00,63.1,61.9,30.13,SSW,209,0.0,0.0,96,0.00,CLR,,0.00,0.0,WeatherDisplay:10.37,2013-10-05 05:20:00,
2013-10-05 01:30:00,62.8,61.6,30.13,SSW,209,0.0,0.0,96,0.00,CLR,,0.00,0.0,WeatherDisplay:10.37,2013-10-05 05:30:00,
2013-10-05 01:40:00,62.7,61.5,30.13,SSW,209,0.0,0.0,96,0.00,CLR,,0.00,0.0,WeatherDisplay:10.37,2013-10-05 05:40:00,
2013-10-05 01:50:00,62.8,61.9,30.13,SSW,209,0.0,0.0,97,0.00,CLR,,0.00,0.0,WeatherDisplay:10.37,2013-10-05 05:50:00,
2013-10-05 02:00:00,62.7,61.6,30.13,SSW,209,0.0,0.0,96,0.00,CLR,,0.00,0.0,WeatherDisplay:10.37,2013-10-05 06:00:00,
2013-10-05 02:10:00,62.7,61.8,30.13,SSW,209,0.0,0.0,97,0.00,CLR,,0.00,0.0,WeatherDisplay:10.37,2013-10-05 06:10:00,
2013-10-05 02:20:00,62.7,61.8,30.13,SSW,209,0.0,0.0,97,0.00,CLR,,0.00,0.0,WeatherDisplay:10.37,2013-10-05 06:20:00,
2013-10-05 02:30:00,62.5,61.3,30.13,SSW,209,0.0,0.0,96,0.00,CLR,,0.00,0.0,WeatherDisplay:10.37,2013-10-05 06:30:00,
2013-10-05 02:40:00,62.4,61.6,30.13,SSW,209,0.0,0.0,97,0.00,CLR,,0.00,0.0,WeatherDisplay:10.37,2013-10-05 06:40:00,
2013-10-05 02:50:00,62.5,61.6,30.13,SSW,209,0.0,0.0,97,0.00,CLR,,0.00,0.0,WeatherDisplay:10.37,2013-10-05 06:50:00,
2013-10-05 03:00:00,62.5,61.6,30.12,SSW,209,0.0,0.0,97,0.00,CLR,,0.00,0.0,WeatherDisplay:10.37,2013-10-05 07:00:00,
2013-10-05 03:10:00,62.1,60.9,30.12,SSW,209,0.0,0.0,96,0.00,CLR,,0.00,0.0,WeatherDisplay:10.37,2013-10-05 07:10:00,
2013-10-05 03:20:00,61.7,60.5,30.12,SSW,209,0.0,0.0,96,0.00,CLR,,0.00,0.0,WeatherDisplay:10.37,2013-10-05 07:20:00,
2013-10-05 03:30:00,61.5,60.3,30.12,SSW,209,0.0,0.0,96,0.00,CLR,,0.00,0.0,WeatherDisplay:10.37,2013-10-05 07:30:00,
2013-10-05 03:40:00,61.5,60.6,30.12,SSW,209,0.0,0.0,97,0.00,CLR,,0.00,0.0,WeatherDisplay:10.37,2013-10-05 07:40:00,
2013-10-05 03:50:00,61.2,60.3,30.11,SSW,209,0.0,0.0,97,0.00,CLR,,0.00,0.0,WeatherDisplay:10.37,2013-10-05 07:50:00,
2013-10-05 04:00:00,61.1,60.3,30.11,SSW,209,0.0,0.0,97,0.00,CLR,,0.00,0.0,WeatherDisplay:10.37,2013-10-05 08:00:00,
2013-10-05 04:10:00,60.9,60.0,30.12,SSW,209,0.0,0.0,97,0.00,CLR,,0.00,0.0,WeatherDisplay:10.37,2013-10-05 08:10:00,
2013-10-05 04:20:00,61.1,60.2,30.11,SSW,209,0.0,0.0,97,0.00,CLR,,0.00,0.0,WeatherDisplay:10.37,2013-10-05 08:20:00,
2013-10-05 04:30:00,61.0,60.2,30.12,SSW,209,0.0,0.0,97,0.00,CLR,,0.00,0.0,WeatherDisplay:10.37,2013-10-05 08:30:00,
2013-10-05 04:40:00,60.9,60.0,30.12,SSW,209,0.0,0.0,97,0.00,CLR,,0.00,0.0,WeatherDisplay:10.37,2013-10-05 08:40:00,
2013-10-05 04:50:00,60.9,60.0,30.12,SSW,209,0.0,0.0,97,0.00,CLR,,0.00,0.0,WeatherDisplay:10.37,2013-10-05 08:50:00,
2013-10-05 05:00:00,61.1,60.5,30.11,SSW,209,0.0,0.0,98,0.00,CLR,,0.00,0.0,WeatherDisplay:10.37,2013-10-05 09:00:00,
2013-10-05 05:10:00,60.6,59.8,30.12,SSW,209,0.0,0.0,97,0.00,CLR,,0.00,0.0,WeatherDisplay:10.37,2013-10-05 09:10:00,
2013-10-05 05:20:00,60.4,59.5,30.12,SSW,209,0.0,0.0,97,0.00,CLR,,0.00,0.0,WeatherDisplay:10.37,2013-10-05 09:20:00,
2013-10-05 05:30:00,60.6,59.7,30.12,SSW,209,0.0,0.0,97,0.00,CLR,,0.00,0.0,WeatherDisplay:10.37,2013-10-05 09:30:00,
2013-10-05 05:40:00,60.7,59.8,30.12,SSW,209,0.0,0.0,97,0.00,CLR,,0.00,0.0,WeatherDisplay:10.37,2013-10-05 09:40:00,
2013-10-05 05:50:00,60.6,59.7,30.13,SSW,209,0.0,0.0,97,0.00,CLR,,0.00,0.0,WeatherDisplay:10.37,2013-10-05 09:50:00,
2013-10-05 06:00:00,60.4,59.5,30.13,SSW,209,0.0,0.0,97,0.00,CLR,,0.00,0.0,WeatherDisplay:10.37,2013-10-05 10:00:00,
2013-10-05 06:10:00,60.0,59.2,30.13,SSW,209,0.0,0.0,97,0.00,CLR,,0.00,0.0,WeatherDisplay:10.37,2013-10-05 10:10:00,
2013-10-05 06:20:00,59.9,59.0,30.13,SSW,209,0.0,0.0,97,0.00,CLR,,0.00,0.0,WeatherDisplay:10.37,2013-10-05 10:20:00,
2013-10-05 06:30:00,60.1,59.2,30.13,SSW,209,0.0,0.0,97,0.00,CLR,,0.00,0.0,WeatherDisplay:10.37,2013-10-05 10:30:00,
2013-10-05 06:40:00,60.1,59.2,30.13,SSW,209,0.0,0.0,97,0.00,CLR,,0.00,0.0,WeatherDisplay:10.37,2013-10-05 10:40:00,
2013-10-05 06:50:00,60.1,59.2,30.13,SSW,209,0.0,0.0,97,0.00,CLR,,0.00,0.0,WeatherDisplay:10.37,2013-10-05 10:50:00,
2013-10-05 07:00:00,59.7,58.8,30.13,SSW,209,0.0,0.0,97,0.00,CLR,,0.00,0.0,WeatherDisplay:10.37,2013-10-05 11:00:00,
2013-10-05 07:10:00,59.7,59.1,30.13,SSW,209,0.0,0.0,98,0.00,CLR,,0.00,0.0,WeatherDisplay:10.37,2013-10-05 11:10:00,
2013-10-05 07:20:00,59.8,59.2,30.13,SSW,209,0.0,0.0,98,0.00,CLR,,0.00,0.0,WeatherDisplay:10.37,2013-10-05 11:20:00,
2013-10-05 07:30:00,59.9,59.4,30.13,SSW,209,0.0,0.0,98,0.00,CLR,,0.00,0.0,WeatherDisplay:10.37,2013-10-05 11:30:00,
2013-10-05 07:40:00,60.2,59.6,30.13,SSW,209,0.0,0.0,98,0.00,CLR,,0.00,5.0,WeatherDisplay:10.37,2013-10-05 11:40:00,
2013-10-05 07:50:00,60.0,59.1,30.13,SSW,209,0.0,0.0,97,0.00,CLR,,0.00,11.0,WeatherDisplay:10.37,2013-10-05 11:50:00,
2013-10-05 08:00:00,59.9,59.0,30.13,SSW,209,0.0,0.0,97,0.00,CLR,,0.00,14.0,WeatherDisplay:10.37,2013-10-05 12:00:00,
2013-10-05 08:10:00,59.6,58.7,30.14,SSW,209,0.0,0.0,97,0.00,CLR,,0.00,19.0,WeatherDisplay:10.37,2013-10-05 12:10:00,
2013-10-05 08:20:00,59.9,59.3,30.14,SSW,209,0.0,0.0,98,0.00,CLR,,0.00,23.0,WeatherDisplay:10.37,2013-10-05 12:20:00,
2013-10-05 08:30:00,60.5,59.9,30.15,SSW,209,0.0,0.0,98,0.00,CLR,,0.00,25.0,WeatherDisplay:10.37,2013-10-05 12:30:00,
2013-10-05 08:40:00,61.0,60.4,30.15,SSW,209,0.0,0.0,98,0.00,CLR,,0.00,26.0,WeatherDisplay:10.37,2013-10-05 12:40:00,
2013-10-05 08:50:00,61.3,60.7,30.14,SSW,209,0.0,0.0,98,0.00,CLR,,0.00,28.0,WeatherDisplay:10.37,2013-10-05 12:50:00,
2013-10-05 09:00:00,61.9,61.4,30.13,SSW,209,0.0,0.0,98,0.00,OVC,,0.00,30.0,WeatherDisplay:10.37,2013-10-05 13:00:00,
2013-10-05 09:10:00,62.5,61.9,30.13,SSW,209,0.0,0.0,98,0.00,OVC,,0.00,32.0,WeatherDisplay:10.37,2013-10-05 13:10:00,
2013-10-05 09:20:00,63.2,62.6,30.13,SSW,209,0.0,0.0,98,0.00,OVC,,0.00,33.0,WeatherDisplay:10.37,2013-10-05 13:20:00,
2013-10-05 09:30:00,63.8,63.5,30.13,SSW,209,0.0,0.0,99,0.00,OVC,,0.00,35.0,WeatherDisplay:10.37,2013-10-05 13:30:00,
2013-10-05 09:40:00,64.6,64.0,30.13,SSW,209,0.0,0.0,98,0.00,OVC,,0.00,105.0,WeatherDisplay:10.37,2013-10-05 13:40:00,
2013-10-05 09:50:00,65.5,65.0,30.14,SSW,209,0.0,0.0,98,0.00,OVC,,0.00,318.0,WeatherDisplay:10.37,2013-10-05 13:50:00,
2013-10-05 10:00:00,67.1,66.9,30.14,SSW,209,0.0,0.0,99,0.00,OVC,,0.00,350.0,WeatherDisplay:10.37,2013-10-05 14:00:00,
2013-10-05 10:10:00,67.5,66.7,30.14,SSW,209,0.0,0.0,97,0.00,OVC,,0.00,378.0,WeatherDisplay:10.37,2013-10-05 14:10:00,
2013-10-05 10:20:00,68.3,66.5,30.14,SSW,209,0.0,0.0,94,0.00,OVC,,0.00,411.0,WeatherDisplay:10.37,2013-10-05 14:20:00,
2013-10-05 10:30:00,69.4,66.6,30.14,SSW,209,0.0,0.0,91,0.00,OVC,,0.00,461.0,WeatherDisplay:10.37,2013-10-05 14:30:00,
2013-10-05 10:40:00,70.6,65.8,30.14,SSW,209,0.0,0.0,85,0.00,OVC,,0.00,485.0,WeatherDisplay:10.37,2013-10-05 14:40:00,
2013-10-05 10:50:00,71.8,66.0,30.14,SSW,208,0.0,0.0,82,0.00,OVC,,0.00,464.0,WeatherDisplay:10.37,2013-10-05 14:50:00,
2013-10-05 11:00:00,73.1,66.9,30.14,SSW,202,0.0,0.0,81,0.00,OVC,,0.00,540.0,WeatherDisplay:10.37,2013-10-05 15:00:00,
2013-10-05 11:10:00,74.3,67.7,30.13,SSW,202,0.0,0.0,80,0.00,OVC,,0.00,563.0,WeatherDisplay:10.37,2013-10-05 15:10:00,
2013-10-05 11:20:00,75.3,68.3,30.14,SSW,202,0.0,0.0,79,0.00,OVC,,0.00,591.0,WeatherDisplay:10.37,2013-10-05 15:20:00,
2013-10-05 11:30:00,76.2,68.1,30.14,SSW,202,0.0,0.0,76,0.00,OVC,,0.00,621.0,WeatherDisplay:10.37,2013-10-05 15:30:00,
2013-10-05 11:40:00,76.9,68.0,30.13,SSW,199,0.0,0.0,74,0.00,OVC,,0.00,628.0,WeatherDisplay:10.37,2013-10-05 15:40:00,
2013-10-05 11:50:00,77.1,67.4,30.13,South,188,0.0,0.0,72,0.00,OVC,,0.00,650.0,WeatherDisplay:10.37,2013-10-05 15:50:00,
2013-10-05 12:00:00,77.6,68.6,30.13,South,184,0.0,0.0,74,0.00,OVC,,0.00,675.0,WeatherDisplay:10.37,2013-10-05 16:00:00,
2013-10-05 12:10:00,78.0,66.5,30.13,South,183,0.0,0.0,68,0.00,OVC,,0.00,693.0,WeatherDisplay:10.37,2013-10-05 16:10:00,
2013-10-05 12:20:00,78.6,67.6,30.13,South,181,0.0,0.0,69,0.00,OVC,,0.00,687.0,WeatherDisplay:10.37,2013-10-05 16:20:00,
2013-10-05 12:30:00,78.7,67.6,30.13,South,179,0.0,0.0,69,0.00,OVC,,0.00,698.0,WeatherDisplay:10.37,2013-10-05 16:30:00,
2013-10-05 12:40:00,78.9,66.1,30.12,South,178,0.0,0.0,65,0.00,CLR,,0.00,724.0,WeatherDisplay:10.37,2013-10-05 16:40:00,
2013-10-05 12:50:00,79.5,68.1,30.12,South,178,0.0,0.0,68,0.00,CLR,,0.00,729.0,WeatherDisplay:10.37,2013-10-05 16:50:00,
2013-10-05 13:00:00,80.2,68.2,30.12,SSE,168,0.0,0.0,67,0.00,CLR,,0.00,740.0,WeatherDisplay:10.37,2013-10-05 17:00:00,
2013-10-05 13:10:00,80.7,65.5,30.12,SSE,161,0.0,0.0,60,0.00,CLR,,0.00,752.0,WeatherDisplay:10.37,2013-10-05 17:10:00,
2013-10-05 13:20:00,81.0,67.2,30.11,SSE,161,0.0,0.0,63,0.00,CLR,,0.00,763.0,WeatherDisplay:10.37,2013-10-05 17:20:00,
2013-10-05 13:30:00,80.9,67.1,30.11,SSE,153,0.0,0.0,63,0.00,CLR,,0.00,751.0,WeatherDisplay:10.37,2013-10-05 17:30:00,
2013-10-05 13:40:00,81.1,67.8,30.10,SSE,153,0.0,0.0,64,0.00,CLR,,0.00,735.0,WeatherDisplay:10.37,2013-10-05 17:40:00,
2013-10-05 13:50:00,81.1,66.8,30.10,SSE,151,0.0,0.0,62,0.00,CLR,,0.00,737.0,WeatherDisplay:10.37,2013-10-05 17:50:00,
2013-10-05 14:00:00,81.4,66.2,30.10,SSE,150,0.0,0.0,60,0.00,CLR,,0.00,740.0,WeatherDisplay:10.37,2013-10-05 18:00:00,
2013-10-05 14:10:00,81.5,65.8,30.09,SE,132,0.0,0.0,59,0.00,CLR,,0.00,735.0,WeatherDisplay:10.37,2013-10-05 18:10:00,
2013-10-05 14:20:00,81.5,66.2,30.08,ESE,107,0.0,0.0,60,0.00,CLR,,0.00,724.0,WeatherDisplay:10.37,2013-10-05 18:20:00,
2013-10-05 14:30:00,81.9,67.6,30.08,ESE,102,0.0,0.0,62,0.00,CLR,,0.00,721.0,WeatherDisplay:10.37,2013-10-05 18:30:00,
2013-10-05 14:40:00,81.9,66.2,30.08,East,101,0.0,0.0,59,0.00,CLR,,0.00,712.0,WeatherDisplay:10.37,2013-10-05 18:40:00,
2013-10-05 14:50:00,81.7,66.9,30.08,ESE,119,0.0,0.0,61,0.00,CLR,,0.00,691.0,WeatherDisplay:10.37,2013-10-05 18:50:00,
2013-10-05 15:00:00,82.3,67.1,30.07,ESE,119,0.0,0.0,60,0.00,CLR,,0.00,682.0,WeatherDisplay:10.37,2013-10-05 19:00:00,
2013-10-05 15:10:00,82.7,65.4,30.07,ESE,121,0.0,0.0,56,0.00,CLR,,0.00,661.0,WeatherDisplay:10.37,2013-10-05 19:10:00,
2013-10-05 15:20:00,82.7,64.9,30.07,ESE,123,0.0,0.0,55,0.00,CLR,,0.00,649.0,WeatherDisplay:10.37,2013-10-05 19:20:00,
2013-10-05 15:30:00,82.3,65.5,30.06,ESE,121,0.0,0.0,57,0.00,CLR,,0.00,628.0,WeatherDisplay:10.37,2013-10-05 19:30:00,
2013-10-05 15:40:00,82.6,65.3,30.06,ESE,118,0.0,0.0,56,0.00,CLR,,0.00,606.0,WeatherDisplay:10.37,2013-10-05 19:40:00,
2013-10-05 15:50:00,82.7,65.4,30.06,ESE,121,0.0,0.0,56,0.00,CLR,,0.00,585.0,WeatherDisplay:10.37,2013-10-05 19:50:00,
2013-10-05 16:00:00,82.5,65.2,30.05,ESE,123,0.0,0.0,56,0.00,CLR,,0.00,563.0,WeatherDisplay:10.37,2013-10-05 20:00:00,
2013-10-05 16:10:00,82.4,66.2,30.05,SE,131,0.0,0.0,58,0.00,FEW,,0.00,534.0,WeatherDisplay:10.37,2013-10-05 20:10:00,
2013-10-05 16:20:00,82.2,67.8,30.05,SE,132,0.0,0.0,62,0.00,FEW,,0.00,513.0,WeatherDisplay:10.37,2013-10-05 20:20:00,
2013-10-05 16:30:00,82.3,66.5,30.04,SE,132,0.0,0.0,59,0.00,SCT,,0.00,490.0,WeatherDisplay:10.37,2013-10-05 20:30:00,
2013-10-05 16:40:00,82.4,67.1,30.04,SE,132,0.0,0.0,60,0.00,SCT,,0.00,459.0,WeatherDisplay:10.37,2013-10-05 20:40:00,
2013-10-05 16:50:00,82.5,67.6,30.04,SE,136,0.0,0.0,61,0.00,SCT,,0.00,425.0,WeatherDisplay:10.37,2013-10-05 20:50:00,
2013-10-05 17:00:00,82.1,66.8,30.04,SE,136,0.0,0.0,60,0.00,SCT,,0.00,401.0,WeatherDisplay:10.37,2013-10-05 21:00:00,
2013-10-05 17:10:00,82.2,67.9,30.04,SE,140,0.0,0.0,62,0.00,BKN,,0.00,371.0,WeatherDisplay:10.37,2013-10-05 21:10:00,
2013-10-05 17:20:00,82.2,67.4,30.03,SE,140,0.0,0.0,61,0.00,BKN,,0.00,336.0,WeatherDisplay:10.37,2013-10-05 21:20:00,
2013-10-05 17:30:00,82.3,67.0,30.03,SE,139,0.0,0.0,60,0.00,BKN,,0.00,302.0,WeatherDisplay:10.37,2013-10-05 21:30:00,
2013-10-05 17:40:00,82.3,66.5,30.03,SE,139,0.0,0.0,59,0.00,BKN,,0.00,274.0,WeatherDisplay:10.37,2013-10-05 21:40:00,
2013-10-05 17:50:00,82.2,67.9,30.03,SE,139,0.0,0.0,62,0.00,BKN,,0.00,243.0,WeatherDisplay:10.37,2013-10-05 21:50:00,
2013-10-05 18:00:00,81.2,66.0,30.03,SE,140,0.0,0.0,60,0.00,BKN,,0.00,202.0,WeatherDisplay:10.37,2013-10-05 22:00:00,
2013-10-05 18:10:00,81.0,67.2,30.03,SE,140,0.0,0.0,63,0.00,BKN,,0.00,172.0,WeatherDisplay:10.37,2013-10-05 22:10:00,
2013-10-05 18:20:00,81.0,67.2,30.03,SE,140,0.0,0.0,63,0.00,BKN,,0.00,141.0,WeatherDisplay:10.37,2013-10-05 22:20:00,
2013-10-05 18:30:00,80.2,67.4,30.03,SE,140,0.0,0.0,65,0.00,BKN,,0.00,111.0,WeatherDisplay:10.37,2013-10-05 22:30:00,
2013-10-05 18:40:00,79.4,67.1,30.03,SE,140,0.0,0.0,66,0.00,BKN,,0.00,84.0,WeatherDisplay:10.37,2013-10-05 22:40:00,
2013-10-05 18:50:00,78.7,67.2,30.03,SE,140,0.0,0.0,68,0.00,BKN,,0.00,53.0,WeatherDisplay:10.37,2013-10-05 22:50:00,
2013-10-05 19:00:00,77.9,67.3,30.04,SE,140,0.0,0.0,70,0.00,CLR,,0.00,26.0,WeatherDisplay:10.37,2013-10-05 23:00:00,
2013-10-05 19:10:00,76.5,66.8,30.03,SE,140,0.0,0.0,72,0.00,CLR,,0.00,7.0,WeatherDisplay:10.37,2013-10-05 23:10:00,
2013-10-05 19:20:00,74.8,66.7,30.03,SE,140,0.0,0.0,76,0.00,CLR,,0.00,0.0,WeatherDisplay:10.37,2013-10-05 23:20:00,
2013-10-05 19:30:00,73.3,66.7,30.03,SE,140,0.0,0.0,80,0.00,CLR,,0.00,0.0,WeatherDisplay:10.37,2013-10-05 23:30:00,
2013-10-05 19:40:00,72.0,66.6,30.04,SE,140,0.0,0.0,83,0.00,CLR,,0.00,0.0,WeatherDisplay:10.37,2013-10-05 23:40:00,
2013-10-05 19:50:00,71.0,66.3,30.05,SE,140,0.0,0.0,85,0.00,CLR,,0.00,0.0,WeatherDisplay:10.37,2013-10-05 23:50:00,
2013-10-05 20:00:00,70.3,65.9,30.05,SE,140,0.0,0.0,86,0.00,CLR,,0.00,0.0,WeatherDisplay:10.37,2013-10-06 00:00:00,
2013-10-05 20:10:00,69.8,65.4,30.05,SE,140,0.0,0.0,86,0.00,CLR,,0.00,0.0,WeatherDisplay:10.37,2013-10-06 00:10:00,
2013-10-05 20:20:00,69.3,65.3,30.05,SE,138,0.0,0.0,87,0.00,CLR,,0.00,0.0,WeatherDisplay:10.37,2013-10-06 00:20:00,
2013-10-05 20:30:00,68.8,65.1,30.05,SE,138,0.0,0.0,88,0.00,CLR,,0.00,0.0,WeatherDisplay:10.37,2013-10-06 00:30:00,
2013-10-05 20:40:00,68.5,65.1,30.05,SE,138,0.0,0.0,89,0.00,CLR,,0.00,0.0,WeatherDisplay:10.37,2013-10-06 00:40:00,
2013-10-05 20:50:00,68.3,64.9,30.05,SE,138,0.0,0.0,89,0.00,CLR,,0.00,0.0,WeatherDisplay:10.37,2013-10-06 00:50:00,
2013-10-05 21:00:00,68.2,65.2,30.06,SE,138,0.0,0.0,90,0.00,CLR,,0.00,0.0,WeatherDisplay:10.37,2013-10-06 01:00:00,
2013-10-05 21:10:00,68.1,65.1,30.06,SE,138,0.0,0.0,90,0.00,CLR,,0.00,0.0,WeatherDisplay:10.37,2013-10-06 01:10:00,
2013-10-05 21:20:00,67.9,64.9,30.06,SE,138,0.0,0.0,90,0.00,CLR,,0.00,0.0,WeatherDisplay:10.37,2013-10-06 01:20:00,
2013-10-05 21:30:00,67.8,64.8,30.06,SE,138,0.0,0.0,90,0.00,CLR,,0.00,0.0,WeatherDisplay:10.37,2013-10-06 01:30:00,
2013-10-05 21:40:00,67.7,64.7,30.06,SE,138,0.0,0.0,90,0.00,CLR,,0.00,0.0,WeatherDisplay:10.37,2013-10-06 01:40:00,
2013-10-05 21:50:00,67.6,64.6,30.06,SE,138,0.0,0.0,90,0.00,CLR,,0.00,0.0,WeatherDisplay:10.37,2013-10-06 01:50:00,
2013-10-05 22:00:00,67.5,64.5,30.06,SE,138,0.0,0.0,90,0.00,CLR,,0.00,0.0,WeatherDisplay:10.37,2013-10-06 02:00:00,
2013-10-05 22:10:00,67.5,64.1,30.06,SE,138,0.0,0.0,89,0.00,CLR,,0.00,0.0,WeatherDisplay:10.37,2013-10-06 02:10:00,
2013-10-05 22:20:00,67.5,64.1,30.06,SE,138,0.0,0.0,89,0.00,CLR,,0.00,0.0,WeatherDisplay:10.37,2013-10-06 02:20:00,
2013-10-05 22:30:00,67.5,64.1,30.06,SE,138,0.0,0.0,89,0.00,CLR,,0.00,0.0,WeatherDisplay:10.37,2013-10-06 02:30:00,
2013-10-05 22:40:00,67.5,64.1,30.06,SE,138,0.0,0.0,89,0.00,CLR,,0.00,0.0,WeatherDisplay:10.37,2013-10-06 02:40:00,
2013-10-05 22:50:00,67.5,63.8,30.06,SE,138,0.0,0.0,88,0.00,CLR,,0.00,0.0,WeatherDisplay:10.37,2013-10-06 02:50:00,
2013-10-05 23:00:00,67.4,64.0,30.06,SE,138,0.0,0.0,89,0.00,CLR,,0.00,0.0,WeatherDisplay:10.37,2013-10-06 03:00:00,
2013-10-05 23:10:00,67.1,63.7,30.06,SE,138,0.0,0.0,89,0.00,CLR,,0.00,0.0,WeatherDisplay:10.37,2013-10-06 03:10:00,
2013-10-05 23:20:00,67.0,63.6,30.05,SE,138,0.0,0.0,89,0.00,CLR,,0.00,0.0,WeatherDisplay:10.37,2013-10-06 03:20:00,
2013-10-05 23:30:00,66.9,63.6,30.05,SE,138,0.0,0.0,89,0.00,CLR,,0.00,0.0,WeatherDisplay:10.37,2013-10-06 03:30:00,
2013-10-05 23:40:00,66.8,63.1,30.05,SE,138,0.0,0.0,88,0.00,CLR,,0.00,0.0,WeatherDisplay:10.37,2013-10-06 03:40:00,
2013-10-05 23:50:00,66.0,63.0,30.05,SE,138,0.0,0.0,90,0.00,CLR,,0.00,0.0,WeatherDisplay:10.37,2013-10-06 03:50:00,